Dewpoint
54 54 54 54 54 54 54 54 55 55 55 56 55 56 56 57 57 57 57 57 57 57 57 57 57 57 58 58 58 58 57 53 49 40 41 41 55 70 74 78 76 77 79 72 61 58 56 55 53 50 46 47 47 41 53 52 50 55 50 50 43 42 36 35 37 37 37 38 39 40 41 37 40 43 45 48 47 46 46 48 48 51 52 54 57 60 62 64
54 54 54 54 54 54 54 54 55 55 55 55 55 56 56 56 57 57 57 57 57 56 57 57 57 57 58 58 58 58 56 53 45 39 34 59 70 68 73 76 77 78 78 64 55 54 49 47 47 47 44 44 44 40 48 46 49 46 49 50 46 39 36 37 38 39 38 40 41 40 40 38 38 43 40 43 43 44 44 47 49 48 55 58 58 60 62 63
53 53 53 53 54 54 54 54 54 55 55 55 55 55 55 56 56 56 57 56 56 56 56 56 57 57 58 58 58 58 54 49 42 34 34 69 65 70 72 73 77 78 72 52 49 48 43 44 43 45 39 39 38 36 40 39 44 44 43 42 46 38 38 40 38 38 39 42 41 40 40 40 38 41 39 42 41 43 43 45 48 49 55 56 58 60 61 63
52 53 53 53 53 53 54 54 54 54 54 54 55 55 55 55 56 56 56 56 56 56 56 56 57 57 57 58 58 57 53 50 34 30 34 71 70 73 74 71 73 77 63 48 45 45 39 41 41 43 37 35 35 35 38 37 40 41 44 43 41 38 38 38 38 39 38 40 43 43 42 40 37 41 40 41 40 40 43 45 47 48 54 55 59 60 60 61
52 52 53 53 53 53 53 54 54 54 54 54 55 55 55 55 55 55 55 56 56 56 56 56 56 57 57 57 57 55 51 30 25 36 54 68 72 72 74 72 72 61 55 47 42 41 36 36 41 42 36 33 32 31 32 34 39 40 42 57 40 37 39 35 37 38 38 40 43 43 42 40 40 40 40 40 41 38 40 44 45 50 54 56 58 59 59 60
52 52 52 53 53 53 53 53 54 54 54 54 54 54 55 54 55 55 55 55 55 55 56 56 56 57 57 58 56 51 45 23 21 38 67 70 72 75 73 72 72 58 48 47 38 37 35 33 34 38 34 30 30 28 28 29 37 35 41 41 41 40 38 35 36 37 37 39 42 45 44 43 42 39 41 40 40 37 38 43 45 51 55 56 58 59 59 59
51 52 52 52 52 53 53 53 53 53 53 54 54 54 54 54 54 54 54 54 54 55 55 56 56 57 57 57 53 49 31 25 21 46 75 73 70 74 74 72 72 58 44 44 35 31 33 30 29 31 32 29 28 29 27 26 30 36 38 40 41 40 37 36 34 36 38 39 42 43 44 44 43 40 41 38 38 40 39 43 45 52 56 57 57 59 58 59
51 51 52 52 52 52 53 53 53 53 53 53 54 54 54 54 54 54 54 54 54 55 55 56 56 57 57 53 49 43 38 31 28 51 77 73 67 68 71 50 46 53 41 36 32 28 27 26 25 28 29 27 28 27 27 25 25 33 37 38 38 38 37 36 34 34 38 39 43 43 42 44 42 41 40 37 40 40 42 44 46 51 56 56 58 57 59 60
51 51 52 52 52 52 53 53 53 53 53 53 53 53 53 54 53 54 54 54 54 55 55 56 56 57 58 54 41 28 24 24 25 40 48 45 52 55 53 46 43 44 38 29 28 26 24 24 23 27 27 27 27 26 27 25 23 31 37 38 37 36 35 32 28 32 35 39 43 40 40 44 43 43 39 39 41 43 43 44 47 51 55 55 57 57 60 61
51 51 51 52 52 52 53 53 53 53 53 53 53 53 53 53 53 53 54 54 54 55 55 56 57 57 55 51 34 27 26 27 25 26 31 39 41 53 52 49 45 40 35 31 26 21 21 21 20 25 27 25 26 25 25 25 25 31 34 36 36 35 31 29 30 32 35 40 40 39 40 43 43 41 39 41 43 43 43 45 51 52 55 53 56 58 60 60
51 51 51 51 52 52 52 52 53 53 53 53 53 53 53 53 53 53 54 54 54 55 57 57 57 56 50 47 31 25 31 27 29 30 35 35 37 36 33 33 42 40 36 31 26 22 20 20 20 21 24 23 24 24 23 22 25 27 32 35 34 34 29 30 31 33 36 38 39 39 39 42 42 39 42 42 44 43 45 48 51 54 55 56 57 58 62 61
51 51 51 51 51 52 52 52 52 53 53 53 53 53 53 53 53 54 54 54 55 57 57 58 58 55 52 47 35 30 28 28 29 32 36 39 35 34 32 33 35 38 36 32 28 25 22 21 20 18 20 24 21 23 23 23 23 25 29 27 30 31 31 33 31 33 37 36 38 39 40 40 42 38 43 45 45 44 45 48 53 53 56 57 58 58 61 60
50 51 51 51 51 51 52 52 52 52 52 52 53 52 53 53 54 54 54 55 56 56 57 57 58 54 52 41 35 31 29 29 29 31 33 37 39 33 31 31 32 33 34 33 30 28 26 23 21 17 20 21 23 22 23 24 23 24 25 26 29 29 30 32 32 34 34 38 38 39 41 39 41 41 42 46 46 44 45 48 50 52 54 55 58 58 60 61
50 51 51 51 52 52 52 52 52 52 52 52 52 52 53 53 54 55 55 57 58 58 57 57 56 53 51 36 25 22 33 33 32 32 34 35 34 31 29 31 31 31 31 33 32 29 27 25 22 19 19 20 20 23 21 23 24 22 23 26 27 29 28 30 31 34 34 41 40 39 39 38 38 41 42 46 46 45 44 46 48 50 52 55 58 58 60 60
50 50 51 51 51 52 52 52 52 52 52 52 52 52 53 53 54 55 57 59 58 57 57 58 56 54 47 38 35 39 71 36 36 32 33 32 30 28 30 30 29 29 31 31 29 30 29 26 22 18 17 21 21 19 18 20 23 23 22 22 25 28 27 28 31 35 34 40 40 38 39 36 35 40 42 46 45 45 45 45 46 49 51 53 57 58 58 60
49 49 50 50 51 51 52 51 52 52 52 52 52 52 53 54 54 56 59 60 58 58 56 56 54 52 42 31 29 55 35 32 31 33 32 33 31 28 28 28 27 29 30 26 25 26 25 23 19 18 20 23 21 18 17 21 22 23 22 27 23 26 28 27 29 34 34 39 39 39 38 38 36 39 43 47 45 45 46 44 45 48 50 52 55 56 59 60
50 50 50 50 51 51 51 51 52 52 52 52 52 53 53 54 55 57 59 59 56 57 56 55 51 49 33 35 37 31 31 29 35 32 32 29 29 28 27 26 28 29 26 24 25 26 25 22 22 22 21 20 19 18 19 22 24 25 24 25 23 24 28 29 31 32 33 39 37 40 39 44 42 41 44 46 45 45 46 46 45 47 49 53 55 55 57 61
49 50 50 51 51 52 51 52 52 52 52 51 52 52 51 54 57 59 58 58 56 55 54 54 51 50 43 43 30 24 26 28 31 31 31 31 25 29 28 25 28 27 23 24 24 20 22 19 19 15 16 19 20 21 21 21 22 24 23 24 25 27 25 25 28 31 32 37 37 39 39 39 42 43 46 46 46 45 45 46 45 46 47 52 54 55 56 60
50 50 50 51 51 51 51 52 51 52 51 52 52 54 55 56 56 56 54 55 53 54 36 47 46 27 19 31 38 31 24 29 31 32 28 27 28 27 26 26 25 27 21 20 20 18 18 15 16 16 14 16 19 20 20 20 23 21 23 24 26 25 22 23 26 30 32 34 34 37 36 37 40 45 46 46 47 47 45 47 47 46 47 52 54 55 54 60
50 50 50 51 51 51 52 51 51 51 51 49 45 47 51 53 54 54 50 53 46 35 30 28 41 31 27 23 28 29 26 32 30 29 24 22 22 24 25 24 23 25 22 15 18 15 16 13 14 14 13 16 19 19 18 19 21 20 23 25 23 24 23 22 27 30 30 32 33 36 38 37 41 45 43 44 46 47 46 46 47 48 48 50 53 54 54 58
49 50 50 51 51 52 51 51 51 51 50 48 44 44 20 22 15 13 22 23 41 45 38 29 22 25 26 24 21 18 20 24 27 24 23 21 21 24 23 22 21 21 21 16 14 16 15 15 11 12 12 16 18 20 19 19 19 20 22 23 23 23 22 23 23 30 30 29 33 36 35 38 41 42 42 45 45 45 45 46 47 47 48 51 54 55 56 57
50 51 51 51 51 51 51 50 51 50 50 49 48 40 16 24 25 24 21 12 14 13 18 23 22 20 20 18 16 14 15 14 13 16 18 19 21 23 22 20 19 19 21 17 14 15 14 11 8 9 11 15 18 20 20 19 18 20 22 24 22 23 24 23 22 27 30 31 33 35 35 35 39 43 44 46 46 48 47 47 47 48 49 51 52 55 56 56
50 50 51 51 51 51 50 50 49 49 48 45 33 21 25 28 25 25 21 19 18 17 14 11 11 12 14 15 15 14 11 11 10 13 18 20 21 22 22 19 16 17 17 15 12 13 12 8 10 8 11 13 16 19 19 18 18 19 21 24 24 24 22 20 23 24 31 32 32 39 34 35 39 44 48 45 46 48 47 46 46 47 49 51 51 54 56 55
50 50 50 51 51 50 51 49 49 49 49 40 23 27 29 27 23 23 23 18 14 11 11 17 14 11 11 12 14 13 12 11 11 10 17 21 20 22 21 21 15 15 15 15 13 9 9 9 9 8 9 13 16 17 17 17 17 18 20 22 22 24 23 23 26 30 33 33 34 37 39 38 39 40 43 46 46 46 48 47 48 48 47 50 52 54 56 57
50 50 51 51 50 51 49 49 48 33 22 21 27 25 26 30 32 28 28 27 22 20 18 10 13 13 12 13 20 14 14 13 12 14 17 20 20 21 19 22 18 13 14 14 13 10 9 9 7 7 8 11 14 15 16 16 17 17 21 19 23 24 24 22 24 29 30 35 36 34 36 39 41 41 40 42 43 46 51 52 49 51 49 50 50 53 55 56
49 50 51 51 51 50 49 44 39 28 23 22 25 25 32 28 27 33 31 25 9 4 19 14 15 13 16 18 22 18 18 17 18 20 20 21 24 21 21 21 21 16 13 13 13 14 8 8 10 6 7 9 11 13 15 15 15 17 18 20 20 22 21 22 23 26 30 32 35 34 35 38 40 40 40 41 42 44 50 51 50 51 53 50 51 51 53 55
50 51 51 51 51 49 39 21 36 35 27 25 24 26 23 25 43 31 30 22 16 13 17 16 13 18 19 20 21 21 19 19 22 23 22 25 20 22 19 17 22 20 16 14 18 13 13 9 11 9 8 8 8 11 13 16 16 15 16 18 20 19 20 20 23 25 30 32 32 36 37 40 36 36 40 38 43 46 47 45 48 50 55 52 54 52 54 55
51 51 51 51 50 49 44 42 41 32 23 27 25 22 25 36 40 35 27 14 10 16 20 22 21 26 23 23 22 21 24 23 22 24 23 24 24 21 21 18 20 19 19 17 14 15 15 13 11 7 6 5 7 10 15 16 13 15 15 16 17 21 22 20 22 25 27 30 32 32 35 38 38 40 38 36 35 40 44 44 47 51 52 55 55 55 55 54
51 51 51 50 50 49 48 45 43 36 28 29 27 27 25 36 30 28 22 20 18 13 23 24 29 25 27 24 24 21 23 25 20 21 22 24 23 21 19 21 20 20 18 18 14 15 17 17 10 6 7 4 7 8 13 13 14 16 17 18 18 18 20 22 24 24 27 30 32 33 30 34 35 37 37 38 35 37 40 45 49 51 50 50 52 53 56 59
51 51 51 50 48 42 42 47 45 39 35 32 30 34 31 31 33 19 11 16 15 11 19 25 24 22 25 21 21 22 21 22 22 26 24 23 22 22 22 20 19 20 18 17 16 16 15 22 18 5 7 10 7 6 9 12 15 17 16 17 17 17 18 22 22 27 29 29 31 30 30 29 30 35 35 37 38 37 37 41 45 48 48 48 53 55 55 57
51 50 50 50 44 39 37 29 25 33 39 40 36 30 28 33 24 18 15 13 16 13 17 23 20 20 22 22 18 19 18 20 19 26 23 23 20 20 21 19 17 17 20 19 15 17 17 14 12 6 9 10 7 6 9 12 15 14 15 16 17 22 25 28 26 29 26 26 31 28 29 31 30 33 35 38 37 37 40 43 44 42 44 48 51 55 58 58
50 50 50 48 45 44 37 26 36 35 38 35 30 23 20 16 19 15 13 15 11 11 13 17 16 17 20 20 17 18 16 17 20 23 20 19 19 16 17 19 20 18 19 19 16 17 17 16 14 11 15 8 10 7 4 6 9 12 15 20 19 22 28 26 26 23 22 24 27 25 27 28 31 35 36 35 34 35 39 39 40 38 37 46 53 53 50 54
49 49 49 48 48 46 43 37 31 36 39 34 30 24 17 15 20 14 10 13 10 15 13 15 14 17 18 16 14 17 17 16 19 22 21 20 18 17 16 19 21 18 19 20 18 19 17 17 16 14 11 13 9 5 3 2 6 9 15 19 21 19 22 24 24 26 27 26 21 23 26 27 30 32 36 34 35 33 36 40 38 38 42 41 49 54 47 48
49 48 46 46 44 39 41 47 45 42 37 36 30 17 12 12 14 25 12 9 10 13 16 12 13 15 16 15 14 15 17 16 17 20 21 21 17 17 17 18 19 17 16 21 17 18 18 14 10 14 13 11 8 4 0 1 6 10 11 15 20 22 23 24 24 24 22 24 24 23 26 29 27 31 33 34 34 35 32 35 39 38 35 36 39 53 54 52
48 48 47 46 45 45 42 42 46 45 41 32 20 13 8 12 12 10 12 11 10 9 12 14 12 15 15 14 13 12 11 13 15 19 20 19 18 15 17 16 17 17 16 15 20 21 17 15 10 12 15 11 9 7 2 0 6 6 8 15 17 20 26 22 23 23 25 24 24 28 26 27 29 34 32 34 30 33 33 31 33 35 34 35 33 37 44 47
47 43 39 38 35 34 42 42 44 46 39 27 17 11 6 9 7 7 8 11 11 9 9 13 14 15 14 12 14 12 11 13 13 14 17 19 18 18 16 16 15 16 17 15 19 19 20 17 13 12 16 12 9 8 4 2 5 9 8 13 17 20 21 24 28 24 25 25 25 28 27 28 29 26 25 30 30 29 31 29 28 31 31 39 36 35 52 54
42 43 37 36 34 34 42 42 43 44 38 27 16 12 8 7 6 6 16 7 10 10 9 9 15 14 13 11 12 10 13 14 12 12 14 16 16 17 17 16 17 16 16 17 16 19 19 18 17 15 15 13 9 8 5 3 3 9 12 13 16 19 20 25 21 27 23 22 25 22 23 25 25 25 29 29 29 26 33 32 26 32 30 30 32 37 43 53
42 41 42 40 38 36 43 45 44 44 36 24 20 29 13 7 5 4 4 5 9 11 9 10 9 12 12 12 10 11 11 11 10 14 14 14 15 17 17 17 17 17 16 17 17 17 18 18 16 16 17 16 15 13 9 4 1 3 9 14 11 18 20 24 27 21 21 23 23 23 22 22 24 27 28 31 29 28 34 35 32 29 29 32 33 36 41 42
44 40 27 35 39 41 43 47 44 43 35 25 19 21 18 14 9 3 3 3 3 12 15 12 9 9 9 8 9 8 9 9 11 9 12 15 14 16 16 18 17 16 16 16 16 16 18 16 18 18 16 16 16 11 12 6 4 2 5 8 12 17 21 22 25 25 26 23 23 21 22 23 29 26 27 32 33 32 29 31 30 29 30 30 33 34 37 43
34 28 22 39 39 42 45 40 36 37 34 27 20 16 17 14 13 12 7 2 1 7 18 17 12 10 9 8 7 5 5 5 7 11 9 12 12 14 15 17 17 18 17 17 16 15 19 26 17 12 15 13 14 12 9 9 4 2 1 4 13 15 17 20 20 20 23 25 22 23 21 25 28 25 26 32 33 31 27 30 33 32 30 26 29 33 38 47
34 31 26 40 39 41 39 31 29 26 29 30 28 23 18 14 13 13 11 9 4 1 6 12 12 12 12 11 8 7 9 6 5 7 12 9 10 14 18 18 18 17 17 16 17 17 21 22 19 16 13 13 11 13 11 8 7 4 -2 0 8 14 17 17 19 18 19 19 24 21 22 30 25 21 28 28 30 28 28 29 30 29 28 38 31 32 40 47
35 27 25 35 34 38 32 23 22 24 21 21 22 24 23 31 18 15 11 10 8 4 2 3 4 6 11 12 12 13 12 12 11 13 13 8 11 15 21 20 18 18 17 20 18 17 22 23 21 17 12 12 11 11 11 7 6 5 0 -2 3 10 18 20 20 24 20 19 19 24 22 28 31 31 30 28 30 25 28 27 29 28 31 29 33 27 38 49
32 29 31 32 28 23 22 22 25 23 19 18 19 18 20 21 18 16 14 12 8 6 4 2 2 3 4 6 8 7 13 13 16 15 12 14 15 17 18 21 19 18 20 20 19 20 42 21 23 20 22 12 13 11 10 9 8 6 5 2 -1 2 10 17 21 25 20 23 22 22 24 22 29 38 35 28 37 28 32 29 34 28 27 30 33 34 54 53
32 31 31 30 30 29 21 18 19 19 18 19 18 16 15 16 17 17 16 15 12 8 4 4 3 0 5 4 3 5 10 14 13 15 16 18 15 16 17 21 21 18 19 22 24 21 22 28 26 24 23 20 15 17 11 10 9 5 2 5 5 2 5 13 19 25 24 23 23 21 21 22 29 35 35 32 30 27 28 27 30 31 33 30 31 53 53 60
33 31 30 30 31 28 23 20 19 19 20 20 19 18 15 13 14 17 17 16 15 13 11 5 3 1 1 1 4 5 8 9 15 13 14 12 12 13 15 21 22 21 20 35 60 22 21 25 27 22 22 18 18 16 14 12 8 6 5 3 8 5 9 12 15 26 24 32 32 24 25 29 29 39 34 32 33 36 32 28 24 29 38 31 30 35 58 56
31 27 26 26 26 29 28 27 25 24 24 26 26 25 22 20 16 15 14 14 16 16 13 11 7 5 4 3 5 5 7 8 8 14 15 10 11 12 18 16 21 22 45 51 42 33 26 28 29 29 26 20 24 28 22 15 8 6 4 3 2 6 8 9 13 19 19 26 26 32 33 27 29 28 31 29 33 32 30 30 29 31 33 35 48 46 46 59
36 27 26 24 29 28 30 33 34 35 34 34 32 30 26 25 25 24 24 19 18 17 16 14 11 10 8 5 5 5 5 5 9 12 13 10 10 10 13 15 16 29 50 44 33 27 35 27 26 33 31 28 22 24 17 16 11 8 6 4 1 0 5 10 12 15 31 20 19 31 40 28 26 30 31 34 31 34 34 35 31 33 34 32 36 55 58 52
31 29 26 30 28 29 27 29 31 32 32 30 29 28 27 27 28 28 28 25 20 18 15 17 17 15 10 8 10 9 11 12 14 11 10 9 11 8 7 10 12 39 36 24 28 28 27 24 24 23 24 24 22 20 19 15 16 15 7 4 3 2 3 8 20 18 26 18 19 33 41 33 27 25 25 29 33 35 28 30 31 31 29 38 46 43 49 52
32 32 29 29 27 26 25 27 29 29 27 25 27 26 24 25 25 27 27 27 27 26 19 18 16 15 15 16 17 14 22 12 10 17 17 11 11 18 15 8 14 21 24 27 28 35 32 26 28 24 25 24 23 21 21 18 16 15 10 9 8 6 5 4 4 7 12 29 25 24 37 30 24 23 25 28 30 28 28 32 34 34 30 43 37 37 29 51
36 34 31 30 30 30 28 27 25 25 22 24 23 24 25 24 24 26 26 25 27 30 31 22 19 16 13 14 23 20 18 16 16 14 19 17 12 21 21 20 25 24 23 26 27 33 29 29 33 25 26 24 23 23 22 20 16 15 16 13 12 12 12 9 3 3 15 15 15 18 29 28 26 30 29 30 32 29 31 28 27 36 34 30 32 29 32 33
36 35 35 32 27 27 27 27 26 25 24 25 24 23 24 21 20 21 22 26 27 27 29 31 32 31 31 32 33 19 20 23 24 20 21 18 18 19 19 21 16 21 21 22 25 26 28 31 33 34 28 25 24 24 22 21 18 17 15 16 16 13 14 10 13 11 13 20 20 15 21 21 26 30 27 29 30 31 31 34 34 34 30 35 35 33 35 41
37 35 35 33 30 33 28 27 28 25 25 25 25 24 24 23 21 23 26 28 27 26 25 32 32 31 32 33 33 33 32 32 32 33 35 29 23 17 17 18 19 21 19 20 27 24 33 33 29 30 27 30 30 27 26 24 23 21 20 17 17 16 16 15 16 15 13 11 13 16 16 21 26 29 24 29 25 30 30 28 32 36 47 36 37 38 35 35